CST,Max TemperatureF,Mean TemperatureF,Min TemperatureF,Max Dew PointF,MeanDew PointF,Min DewpointF,Max Humidity, Mean Humidity, Min Humidity, Max Sea Level PressureIn, Mean Sea Level PressureIn, Min Sea Level PressureIn, Max VisibilityMiles, Mean VisibilityMiles, Min VisibilityMiles, Max Wind SpeedMPH, Mean Wind SpeedMPH, Max Gust SpeedMPH,PrecipitationIn, CloudCover, Events, WindDirDegrees
2012-11-1,63,46,30,41,33,23,85,60,37,30.02,29.95,29.87,10,9,4,15,3,23,0.00,3,,253
2012-11-2,55,46,37,36,33,30,76,61,43,30.09,30.03,29.91,10,10,10,16,9,25,0.00,0,,60
2012-11-3,51,45,37,38,36,33,89,70,59,30.22,30.09,30.01,10,10,9,16,10,23,0.00,4,,60
2012-11-4,50,38,28,36,33,28,100,81,54,30.28,30.23,30.17,10,7,0,8,2,,0.00,3,Fog,43
2012-11-5,43,42,41,41,39,35,93,86,74,30.16,30.11,30.08,9,5,2,12,8,,0.15,8,Rain,101
2012-11-6,46,42,39,43,40,37,93,87,80,30.09,29.99,29.93,10,6,2,14,4,,0.03,8,Rain,245
2012-11-7,48,44,36,41,37,33,89,74,61,30.20,30.07,29.94,10,10,9,15,7,22,0.01,8,Rain,345
2012-11-8,57,42,28,40,33,27,100,84,49,30.24,30.17,30.07,10,5,0,13,2,,0.00,1,Fog-Snow,124
2012-11-9,72,54,37,53,46,35,89,69,48,30.07,29.98,29.90,10,10,7,15,9,,0.00,2,,150
2012-11-10,82,68,54,52,48,40,72,55,22,29.99,29.94,29.87,10,10,10,24,11,30,0.00,0,,167
2012-11-11,69,54,39,57,49,36,100,85,60,30.09,29.92,29.77,10,6,1,29,15,40,1.07,6,Rain,267
2012-11-12,45,38,30,31,23,20,82,60,37,30.45,30.31,30.13,10,10,10,20,14,26,0.00,1,,282
2012-11-13,46,36,27,29,25,21,88,67,39,30.55,30.49,30.45,10,10,10,10,2,,0.00,0,,136
2012-11-14,48,39,30,30,28,25,88,70,39,30.51,30.44,30.37,10,10,9,8,5,,0.00,0,,107
2012-11-15,52,40,28,35,30,25,92,75,40,30.40,30.37,30.33,10,9,5,6,3,,0.00,0,,91
2012-11-16,57,42,28,36,31,28,100,81,37,30.47,30.42,30.39,10,5,0,8,1,,0.01,0,Fog,100
2012-11-17,57,44,30,37,32,28,96,76,37,30.53,30.46,30.40,10,6,2,12,4,,0.00,0,,104
2012-11-18,61,44,28,38,31,26,100,79,26,30.40,30.37,30.29,10,5,0,13,3,,0.01,0,Fog,102
2012-11-19,55,46,37,41,38,34,86,73,51,30.28,30.21,30.13,10,9,7,10,6,,0.00,4,,125
2012-11-20,61,48,36,48,40,35,100,88,60,30.21,30.12,30.08,10,4,0,8,1,,0.00,0,Fog,290
2012-11-21,57,48,39,50,44,39,100,94,74,30.30,30.20,30.14,6,2,0,8,2,,0.02,1,Fog,90
2012-11-22,69,52,35,53,41,36,100,83,42,30.13,30.05,29.91,10,4,0,20,8,25,0.06,2,Fog-Rain-Thunderstorm,110
2012-11-23,50,40,28,38,25,17,77,57,41,30.37,30.27,30.12,10,10,8,22,13,30,0.00,1,,303
2012-11-24,36,30,23,24,19,16,79,66,50,30.37,30.25,30.03,10,10,10,12,7,,0.00,0,,239
2012-11-25,55,42,28,30,27,23,82,59,35,30.08,29.97,29.91,10,10,10,14,6,,0.00,0,,19
2012-11-26,43,36,28,28,25,18,75,65,53,30.41,30.25,30.07,10,10,7,16,10,23,0.00,5,Snow,20
2012-11-27,37,29,21,22,17,14,85,64,42,30.48,30.40,30.34,10,10,9,9,4,,0.00,0,Snow,336
2012-11-28,48,34,21,27,23,17,93,72,43,30.46,30.38,30.31,10,8,2,8,2,,0.00,0,,161
2012-11-29,60,44,27,34,29,23,89,62,36,30.30,30.18,30.08,10,9,5,15,7,,0.00,0,,128
2012-11-30,64,47,30,43,34,25,85,66,43,30.12,30.09,30.05,10,10,7,10,5,,0.00,0,,129